Location: NJAA Observatory
(40.6819°N, 74.8979°W)
Time: 03:24:07
(UTC-04:00)

Cosmos 1328 Rocket - Visible Passes

Search period start: 31 July 2014 00:00
Search period end: 10 August 2014 00:00
Orbit: 602 x 630 km, 82.5° (Epoch: 29 July)

Date Brightness Start Highest point End Pass type
(mag) Time Alt. Az. Time Alt. Az. Time Alt. Az.
31 Jul 4.0 03:08:58 51° ESE 03:09:19 53° E 03:13:32 10° NNE visible
31 Jul 5.6 04:46:04 11° W 04:47:28 13° WNW 04:49:24 10° NW visible
01 Aug 3.3 03:25:38 78° WSW 03:25:47 80° W 03:30:07 10° N visible
02 Aug 5.9 02:05:11 15° E 02:05:11 15° E 02:07:26 10° NE visible
02 Aug 4.1 03:42:18 41° W 03:42:21 41° WNW 03:46:27 10° N visible
03 Aug 5.3 02:21:50 26° ENE 02:21:50 26° ENE 02:24:53 10° NNE visible
03 Aug 4.9 03:58:57 23° WNW 03:59:00 23° WNW 04:02:27 10° NNW visible
04 Aug 4.5 02:38:28 44° NE 02:38:28 44° NE 02:41:48 10° NNE visible
04 Aug 5.6 04:15:34 13° WNW 04:15:45 13° WNW 04:17:46 10° NW visible
05 Aug 4.2 02:55:04 52° N 02:55:04 52° N 02:58:24 10° N visible
06 Aug 6.2 01:34:34 13° ENE 01:34:34 13° ENE 01:35:38 10° NE visible
06 Aug 4.6 03:11:40 36° NW 03:11:40 36° NW 03:14:44 10° N visible
07 Aug 5.7 01:51:09 21° NE 01:51:09 21° NE 01:53:08 10° NNE visible
07 Aug 5.2 03:28:15 22° NW 03:28:15 22° NW 03:30:45 10° NNW visible
08 Aug 5.3 02:07:43 29° NE 02:07:43 29° NE 02:10:03 10° NNE visible
08 Aug 5.8 03:44:49 13° WNW 03:44:49 13° WNW 03:46:08 10° NW visible
09 Aug 5.1 02:24:16 33° N 02:24:16 33° N 02:26:40 10° N visible
